This demonstration page uses our WeatherBlox Daily Observations layout. Learn more.

Hourly Observations for February 15, 2017

Temp ( °F °C ) Dew Point ( °F °C ) Humidity (%) Winds ( mph kmh ) Pressure ( in mb ) Visibility ( mi km ) Precip ( " mm )
12:15 am 00:15 Clear 28 -2.1 21 -6 75 75 WNW 7 11 30.24 1024 10 16.0934 0 0
12:35 am 00:35 Clear 28 -2 21 -5.9 75 75 WNW 7 11 30.24 1024 10 16.0934 0 0
12:55 am 00:55 Clear 28 -2.1 22 -5.8 76 76 WNW 7 11 30.24 1024 10 16.0934 0 0
1:15 am 01:15 Clear 27 -2.8 21 -6.1 78 78 NW 7 11 30.27 1025 10 16.0934 0 0
1:35 am 01:35 Clear 26 -3.1 21 -6.1 80 80 NW 8 13 30.27 1025 10 16.0934 0 0
1:55 am 01:55 Clear 28 -2.2 22 -5.7 77 77 WNW 6 9 30.24 1024 10 16.0934 0 0
2:15 am 02:15 Clear 28 -2.1 22 -5.6 77 77 WNW 7 11 30.24 1024 10 16.0934 0 0
2:35 am 02:35 Clear 28 -2.5 22 -5.8 78 78 WNW 7 11 30.27 1025 10 16.0934 0 0
2:55 am 02:55 Clear 26 -3.3 21 -6.2 81 81 NW 7 11 30.27 1025 10 16.0934 0 0
3:15 am 03:15 Clear 28 -2.1 22 -5.5 78 78 NW 6 9 30.24 1024 10 16.0934 0 0
3:35 am 03:35 Clear 29 -1.6 23 -5 78 78 NNW 8 13 30.24 1024 10 16.0934 0 0
3:55 am 03:55 Clear 30 -1.1 23 -5 75 75 NNW 8 13 30.24 1024 10 16.0934 0 0
4:15 am 04:15 Clear 27 -2.6 22 -5.7 80 80 WNW 7 11 30.27 1025 10 16.0934 0 0
4:35 am 04:35 Clear 27 -2.8 22 -5.6 81 81 WNW 8 13 30.27 1025 10 16.0934 0 0
4:55 am 04:55 Clear 27 -3 22 -5.8 81 81 WNW 7 11 30.27 1025 10 16.0934 0 0
5:15 am 05:15 Clear 26 -3.5 21 -5.9 84 84 WNW 6 9 30.27 1025 10 16.0934 0 0
5:35 am 05:35 Clear 25 -3.7 21 -6.1 84 84 WNW 9 15 30.27 1025 10 16.0934 0 0
5:55 am 05:55 Clear 25 -3.7 21 -6.1 84 84 WNW 8 13 30.27 1025 10 16.0934 0 0
6:15 am 06:15 Clear 26 -3.4 22 -5.6 85 85 WNW 7 11 30.27 1025 10 16.0934 0 0
6:35 am 06:35 Clear 27 -3 22 -5.8 81 81 WNW 8 13 30.27 1025 10 16.0934 0 0
6:55 am 06:55 Clear 25 -4 20 -6.5 83 83 WNW 5 7 30.27 1025 10 16.0934 0 0
7:15 am 07:15 Clear 25 -3.9 20 -6.5 82 82 W 7 11 30.27 1025 10 16.0934 0 0
7:35 am 07:35 Sunny 26 -3.5 21 -6.1 82 82 W 6 9 30.27 1025 10 16.0934 0 0
7:55 am 07:55 Sunny 26 -3.3 21 -6.2 81 81 W 5 7 30.27 1025 10 16.0934 0 0
8:15 am 08:15 Sunny 28 -2 22 -5.4 78 78 WNW 3 6 30.24 1024 10 16.0934 0 0
8:35 am 08:35 Sunny 30 -1 24 -4.7 76 76 W 3 6 30.24 1024 10 16.0934 0 0
8:55 am 08:55 Sunny 32 0.2 25 -3.8 75 75 W 5 7 30.24 1024 10 16.0934 0 0
9:15 am 09:15 Sunny 35 1.7 27 -3 71 71 W 6 9 30.21 1023 10 16.0934 0 0
9:35 am 09:35 Sunny 38 3.6 29 -1.8 68 68 W 7 11 30.21 1023 10 16.0934 0 0
9:55 am 09:55 Sunny 41 5 29 -1.6 63 63 W 6 9 30.18 1022 10 16.0934 0 0
10:15 am 10:15 Sunny 44 6.4 29 -1.7 57 57 W 8 13 30.18 1022 10 16.0934 0 0
10:35 am 10:35 Sunny 44 6.5 28 -2.2 54 54 SW 6 9 30.18 1022 10 16.0934 0 0
10:55 am 10:55 Sunny 44 6.7 27 -2.7 51 51 WSW 7 11 30.18 1022 10 16.0934 0 0
11:15 am 11:15 Sunny 46 8 27 -2.7 47 47 SW 7 11 30.12 1020 10 16.0934 0 0
11:35 am 11:35 Sunny 49 9.3 27 -2.9 43 43 SW 9 15 30.12 1020 10 16.0934 0 0
11:55 am 11:55 Sunny 49 9.7 26 -3.6 39 39 W 12 19 30.12 1020 10 16.0934 0 0
12:15 pm 12:15 Sunny 51 10.8 25 -4.1 35 35 WSW 10 17 30.09 1019 10 16.0934 0 0
12:35 pm 12:35 Sunny 53 11.6 24 -4.4 33 33 WSW 10 17 30.06 1018 10 16.0934 0 0
12:55 pm 12:55 Sunny 54 12.4 24 -4.3 31 31 SW 13 20 30.03 1017 10 16.0934 0 0
1:15 pm 13:15 Sunny 55 13 24 -4.3 30 30 WSW 13 20 30 1016 10 16.0934 0 0
1:35 pm 13:35 Sunny 57 13.9 24 -4.7 27 27 WSW 15 24 29.97 1015 10 16.0934 0 0
1:55 pm 13:55 Sunny 58 14.5 23 -4.9 26 26 WSW 15 24 29.97 1015 10 16.0934 0 0
2:15 pm 14:15 Sunny 59 14.9 22 -5.4 24 24 WSW 12 19 29.94 1014 10 16.0934 0 0
2:35 pm 14:35 Sunny 60 15.6 22 -5.6 23 23 WSW 15 24 29.94 1014 10 16.0934 0 0
2:55 pm 14:55 Sunny 60 15.8 22 -5.7 22 22 WSW 14 22 29.91 1013 10 16.0934 0 0
3:15 pm 15:15 Sunny 61 16.2 21 -5.9 22 22 WSW 16 26 29.88 1012 10 16.0934 0 0
3:35 pm 15:35 Sunny 62 16.5 21 -5.9 21 21 WSW 14 22 29.88 1012 10 16.0934 0 0
3:55 pm 15:55 Sunny 62 16.6 21 -5.9 21 21 WSW 12 19 29.88 1012 10 16.0934 0 0
4:15 pm 16:15 Sunny 62 16.7 21 -6.2 20 20 WSW 14 22 29.88 1012 10 16.0934 0 0
4:35 pm 16:35 Sunny 62 16.6 21 -5.9 21 21 WSW 13 20 29.85 1011 10 16.0934 0 0
4:55 pm 16:55 Sunny 62 16.5 21 -5.9 21 21 WSW 12 19 29.85 1011 10 16.0934 0 0
5:15 pm 17:15 Sunny 61 16.2 21 -5.9 22 22 SW 12 19 29.85 1011 10 16.0934 0 0
5:35 pm 17:35 Sunny 60 15.5 22 -5.5 23 23 SW 8 13 29.85 1011 10 16.0934 0 0
5:55 pm 17:55 Sunny 57 13.9 23 -5.2 26 26 SW 7 11 29.88 1012 10 16.0934 0 0
6:15 pm 18:15 Clear 53 11.7 23 -5.2 31 31 SW 8 13 29.88 1012 10 16.0934 0 0
6:35 pm 18:35 Clear 50 10 23 -5.2 34 34 SW 7 11 29.88 1012 10 16.0934 0 0
6:55 pm 18:55 Clear 49 9.3 22 -5.5 35 35 SW 8 13 29.88 1012 10 16.0934 0 0
7:15 pm 19:15 Clear 49 9.3 22 -5.4 35 35 SW 9 15 29.88 1012 10 16.0934 0 0
7:35 pm 19:35 Clear 47 8.5 22 -5.7 36 36 SW 8 13 29.88 1012 10 16.0934 0 0
7:55 pm 19:55 Clear 47 8.1 22 -5.7 37 37 SW 9 15 29.88 1012 10 16.0934 0 0
8:15 pm 20:15 Clear 46 7.6 22 -5.7 39 39 SW 9 15 29.91 1013 10 16.0934 0 0
8:35 pm 20:35 Clear 44 6.5 22 -5.8 41 41 SW 9 15 29.91 1013 10 16.0934 0 0
8:55 pm 20:55 Clear 43 6.3 22 -5.4 43 43 SW 9 15 29.91 1013 10 16.0934 0 0
9:15 pm 21:15 Clear 44 6.4 23 -5.2 44 44 SW 9 15 29.91 1013 10 16.0934 0 0
9:35 pm 21:35 Clear 42 5.6 22 -5.3 46 46 SW 10 17 29.91 1013 10 16.0934 0 0
9:55 pm 21:55 Clear 42 5.7 22 -5.3 45 45 SW 8 13 29.91 1013 10 16.0934 0 0
10:15 pm 22:15 Clear 43 6.1 23 -5.1 45 45 SW 13 20 29.88 1012 10 16.0934 0 0
10:35 pm 22:35 Clear 44 6.6 23 -5.1 43 43 SW 8 13 29.88 1012 10 16.0934 0 0
10:55 pm 22:55 Clear 45 7 23 -5.2 42 42 SW 10 17 29.88 1012 10 16.0934 0 0
11:15 pm 23:15 Clear 43 6.3 23 -5 45 45 SW 9 15 29.88 1012 10 16.0934 0 0
11:35 pm 23:35 Clear 42 5.7 23 -5 46 46 SW 10 17 29.85 1011 10 16.0934 0 0
11:55 pm 23:55 Clear 44 6.7 23 -5.1 43 43 SW 14 22 29.85 1011 10 16.0934 0 0

Powered by AerisWeather